CZ-2C DEB, 40265

Orbit data source: Space-Track

CZ-2C DEB, 40265 is space debris in SSO originally from a launch on Sun, 28 Sep 2014 UTC launched from the Jiuquan Satellite Launch Center, China (JSC). Debris objects in space refer to the collection of defunct objects orbiting the Earth. Examples of debris include non-operational satellites, rocket bodies, and fragments generated from explosions, collisions, or faulty payload assembly.

Loading next visibility...
Identifier
40265, 2014-059E
Orbit
SSO
Country
Flag of CNCN / PRC
Related business
Manufacturer
CALT
Mission
Spacecraft
Bus & Motor
Unknown
Mass
1 kg wet, 1 kg dry
Launch date (UTC)
2014-09-28 (11 years ago)
Launch vehicle
Unknown
Launch site
Jiuquan Satellite Launch Center, China (JSC)
Object type
Payload
Rocket body
Debris
Shape & HBR
Cone, 0.1 m
Radar Cross Section
0.025 m², Small (<0.1 m²)

Expand to show TLE details & history
Last TLE update: 12 hours ago

TLE from 12 hours ago
0 CZ-2C DEB
1 40265U 14059E   26061.74597764  .00002410  00000-0  78471-3 0  9997
2 40265  97.9309 144.2657 0163716  75.3948 286.5329 14.32159047592923
Epoch: 2026-03-02T17:54Z
TLE epoch observation values (Epoch: 2026-03-02T17:54:12.468Z)
Latitude
0.00008°
Longitude
75.17877°
Altitude
755.88 km
Speed
7.493 km/s
True Right ascension
09h 37m 03s
True Declination
0° 00' 00"
Sunlit
Object was in full shadow at epoch
Visualization orbit readout
Latitude
Unknown
Longitude
Unknown
Altitude
Unknown
Speed
Unknown
Apparent Right ascension
Unknown
Apparent Declination
Unknown
Sunlit
N/A
Visualization observer readout
Local Sidereal Time
09:34:24
Azimuth
Unknown
Elevation
Unknown
Doppler factor
Unknown
Orbital elements
Apogee altitude
898.845 km
Perigee altitude
664.412 km
Semi-major axis
7,159.765 km
Eccentricity
0.01637
Inclination
97.9309°
RAAN
144.2657°
Arg. of periapsis
75.3948°
True anomaly
284.72418°
Mean anomaly
286.5329°
Eccentric anomaly
285.62956°
Mean motion
3.58257 °/min
Orbital period
100.49 mins
BSTAR
0.00078471
Loading maneuver chart data...
Computing Atmospheric mass density...
Loading historical data...
Loading historical data...
Loading historical data...
Loading historical data...
Loading historical data...
Loading historical data...
Loading historical data...
Other satellites on launch #59 in the year 2014 (2014-09-28 UTC)

Documentation

Showing up to 5 results
|